{"data":{"norad_id":48245,"intl_designator":"2021-031AM","name":"ONEWEB-0217","alt_names":[],"object_type":"PAYLOAD","status":"ACTIVE","operator":null,"country":"UK","launch_date":"2021-04-25","launch_site_code":"VOSTO","launch_vehicle":null,"mission":null,"orbit_class":"UNKNOWN","rcs_meters":null,"size_class":null,"mass_kg":null,"dimensions":null,"purposes":["comms"],"wikipedia_slug":null,"has_3d_model":false,"image_url":null,"decayed_at":null,"tle_current":{"epoch":"2026-05-25T03:38:32.216928Z","epoch_age_seconds":62048,"freshness":"FRESH","line1":"1 48245U 21031AM  26145.15176177  .00000034  00000+0  58092-4 0  9997","line2":"2 48245  87.8948 294.2892 0001548 105.5371 254.5930 13.14501308245156","mean_motion":13.14501308,"eccentricity":0.0001548,"inclination_deg":87.8948,"raan_deg":294.2892,"arg_perigee_deg":105.5371,"mean_anomaly_deg":254.593,"bstar":5.8092e-5,"rev_number":24515,"period_min":109.54724740373,"perigee_km":1204.6221004628,"apogee_km":1206.9700861485,"semimajor_km":7583.9330933056,"source":"CELESTRAK","updated_at":"2026-05-25T13:38:22.440932Z"}}}